| time (UTC) | temp C | wind direction | speed KPH | gust KPH | rain 1hr cm | rain 24hr cm | rain mn cm | humidity % | barometer mb |
| 20260507061301 | 17 | 163 | 4.8 | 14.5 | 0.00 | 0.03 | 0.03 | 81 | 1012.6 |
| 20260507061028 | 17 | 167 | 3.2 | 14.5 | 0.00 | 0.03 | 0.03 | 81 | 1013.0 |
| 20260507060800 | 17 | 145 | 4.8 | 14.5 | 0.00 | 0.03 | 0.03 | 81 | 1012.6 |
| 20260507060529 | 17 | 142 | 4.8 | 14.5 | 0.00 | 0.03 | 0.03 | 81 | 1012.8 |
| 20260507060252 | 17 | 135 | 6.4 | 12.9 | 0.00 | 0.03 | 0.03 | 82 | 1012.6 |
| 20260507060044 | 17 | 140 | 4.8 | 9.7 | 0.00 | 0.03 | 0.03 | 82 | 1012.9 |
| 20260507055746 | 17 | 172 | 6.4 | 9.7 | 0.00 | 0.03 | 0.03 | 83 | 1012.6 |
| 20260507055529 | 16 | 169 | 3.2 | 9.7 | 0.00 | 0.03 | 0.03 | 83 | 1012.9 |
| 20260507055030 | 16 | 174 | 3.2 | 9.7 | 0.00 | 0.03 | 0.03 | 84 | 1012.9 |
| 20260507054549 | 16 | 165 | 4.8 | 9.7 | 0.00 | 0.03 | 0.03 | 85 | 1012.8 |
| 20260507054241 | 16 | 82 | 4.8 | 8.0 | 0.00 | 0.03 | 0.03 | 86 | 1012.5 |
| 20260507054029 | 16 | 140 | 3.2 | 11.3 | 0.00 | 0.03 | 0.03 | 86 | 1012.8 |
| 20260507053743 | 16 | 148 | 4.8 | 11.3 | 0.00 | 0.03 | 0.03 | 87 | 1012.5 |
| 20260507053529 | 16 | 125 | 3.2 | 11.3 | 0.00 | 0.03 | 0.03 | 86 | 1012.7 |
| 20260507053238 | 16 | 153 | 3.2 | 11.3 | 0.00 | 0.03 | 0.03 | 87 | 1012.5 |
| 20260507053046 | 16 | 151 | 4.8 | 11.3 | 0.00 | 0.03 | 0.03 | 87 | 1012.7 |
| 20260507052528 | 15 | 150 | 4.8 | 11.3 | 0.00 | 0.03 | 0.03 | 87 | 1012.7 |
| 20260507052235 | 16 | 148 | 6.4 | 9.7 | 0.00 | 0.03 | 0.03 | 88 | 1012.4 |
| 20260507052029 | 15 | 155 | 4.8 | 9.7 | 0.00 | 0.03 | 0.03 | 87 | 1012.7 |
| 20260507051732 | 15 | 147 | 3.2 | 8.0 | 0.00 | 0.03 | 0.03 | 88 | 1012.4 |
| 20260507051541 | 15 | 184 | 3.2 | 8.0 | 0.00 | 0.03 | 0.03 | 88 | 1012.7 |
| 20260507051231 | 15 | 142 | 4.8 | 8.0 | 0.00 | 0.03 | 0.03 | 89 | 1012.3 |
| 20260507051029 | 15 | 159 | 1.6 | 8.0 | 0.00 | 0.03 | 0.03 | 88 | 1012.6 |
| 20260507050730 | 15 | 149 | 3.2 | 6.4 | 0.00 | 0.03 | 0.03 | 89 | 1012.2 |
| 20260507050528 | 15 | 132 | 1.6 | 8.0 | 0.00 | 0.03 | 0.03 | 89 | 1012.5 |
| 20260507050228 | 15 | 183 | 1.6 | 6.4 | 0.00 | 0.03 | 0.03 | 89 | 1012.2 |
| 20260507050048 | 15 | 185 | 1.6 | 8.0 | 0.00 | 0.03 | 0.03 | 89 | 1012.5 |
| 20260507045716 | 15 | 188 | 3.2 | 6.4 | 0.00 | 0.03 | 0.03 | 89 | 1012.1 |
| 20260507045528 | 15 | 149 | 3.2 | 8.0 | 0.00 | 0.03 | 0.03 | 89 | 1012.3 |
| 20260507045205 | 15 | 155 | 3.2 | 8.0 | 0.00 | 0.03 | 0.03 | 90 | 1011.9 |
| 20260507045030 | 15 | 138 | 1.6 | 8.0 | 0.00 | 0.03 | 0.03 | 89 | 1012.2 |
| 20260507044703 | 15 | 164 | 3.2 | 8.0 | 0.00 | 0.03 | 0.03 | 90 | 1011.9 |
| 20260507044542 | 15 | 144 | 3.2 | 8.0 | 0.00 | 0.03 | 0.03 | 89 | 1012.2 |
| 20260507044156 | 15 | 152 | 3.2 | 8.0 | 0.00 | 0.03 | 0.03 | 90 | 1011.8 |
| 20260507044029 | 14 | 144 | 3.2 | 9.7 | 0.00 | 0.03 | 0.03 | 89 | 1012.1 |
| 20260507043529 | 14 | 144 | 1.6 | 9.7 | 0.00 | 0.03 | 0.03 | 90 | 1011.9 |
| 20260507043153 | 15 | 126 | 3.2 | 8.0 | 0.00 | 0.03 | 0.03 | 90 | 1011.6 |
| 20260507043041 | 14 | 143 | 1.6 | 6.4 | 0.00 | 0.03 | 0.03 | 90 | 1011.8 |
| 20260507042530 | 14 | 121 | 3.2 | 8.0 | 0.00 | 0.03 | 0.03 | 90 | 1011.8 |
| 20260507042150 | 14 | 144 | 3.2 | 8.0 | 0.00 | 0.03 | 0.03 | 91 | 1011.5 |
| 20260507042028 | 14 | 154 | 3.2 | 8.0 | 0.00 | 0.03 | 0.03 | 90 | 1011.8 |
| 20260507041648 | 14 | 142 | 3.2 | 6.4 | 0.00 | 0.03 | 0.03 | 91 | 1011.4 |
| 20260507041541 | 14 | 136 | 1.6 | 6.4 | 0.00 | 0.03 | 0.03 | 90 | 1011.7 |
| 20260507041145 | 14 | 148 | 3.2 | 6.4 | 0.00 | 0.03 | 0.03 | 90 | 1011.5 |
| 20260507041028 | 13 | 159 | 1.6 | 6.4 | 0.00 | 0.03 | 0.03 | 90 | 1011.6 |
| 20260507040640 | 14 | 144 | 0.0 | 4.8 | 0.00 | 0.03 | 0.03 | 90 | 1011.3 |
| 20260507040530 | 13 | 0 | 0.0 | 4.8 | 0.00 | 0.03 | 0.03 | 90 | 1011.5 |
| 20260507040138 | 14 | 132 | 0.0 | 4.8 | 0.00 | 0.03 | 0.03 | 90 | 1011.2 |
| 20260507040059 | 13 | 0 | 0.0 | 4.8 | 0.00 | 0.03 | 0.03 | 90 | 1011.5 |
| 20260507035640 | 14 | 132 | 1.6 | 3.2 | 0.00 | 0.03 | 0.03 | 90 | 1011.2 |
| 20260507035529 | 13 | 132 | 0.0 | 3.2 | 0.00 | 0.03 | 0.03 | 89 | 1011.5 |
| 20260507035130 | 14 | 132 | 0.0 | 0.0 | 0.00 | 0.03 | 0.03 | 90 | 1011.2 |
| 20260507035028 | 13 | 0 | 0.0 | 0.0 | 0.00 | 0.03 | 0.03 | 89 | 1011.5 |
| 20260507034554 | 13 | 0 | 0.0 | 0.0 | 0.00 | 0.03 | 0.03 | 89 | 1011.5 |
| 20260507034126 | 14 | 132 | 0.0 | 0.0 | 0.00 | 0.03 | 0.03 | 89 | 1011.2 |
| 20260507034031 | 13 | 0 | 0.0 | 0.0 | 0.00 | 0.03 | 0.03 | 89 | 1011.5 |
| 20260507033532 | 14 | 0 | 0.0 | 1.6 | 0.00 | 0.03 | 0.03 | 88 | 1011.4 |
| 20260507033112 | 14 | 132 | 0.0 | 1.6 | 0.03 | 0.03 | 0.03 | 89 | 1011.2 |
| 20260507033045 | 14 | 0 | 0.0 | 1.6 | 0.00 | 0.03 | 0.03 | 88 | 1011.4 |
| 20260507032606 | 14 | 132 | 0.0 | 1.6 | 0.03 | 0.03 | 0.03 | 89 | 1011.2 |
| 20260507032528 | 14 | 132 | 0.0 | 1.6 | 0.03 | 0.03 | 0.03 | 88 | 1011.5 |
| 20260507032105 | 15 | 132 | 0.0 | 1.6 | 0.03 | 0.03 | 0.03 | 88 | 1011.3 |
| 20260507032032 | 14 | 0 | 0.0 | 3.2 | 0.03 | 0.03 | 0.03 | 88 | 1011.4 |
| 20260507031603 | 15 | 132 | 0.0 | 3.2 | 0.03 | 0.03 | 0.03 | 88 | 1011.2 |
| 20260507031541 | 14 | 0 | 0.0 | 4.8 | 0.03 | 0.03 | 0.03 | 88 | 1011.3 |
| 20260507031101 | 15 | 132 | 3.2 | 4.8 | 0.03 | 0.03 | 0.03 | 88 | 1011.1 |
| 20260507031029 | 15 | 132 | 1.6 | 4.8 | 0.03 | 0.03 | 0.03 | 87 | 1011.3 |
| 20260507030539 | 15 | 132 | 1.6 | 4.8 | 0.03 | 0.03 | 0.03 | 87 | 1011.1 |
| 20260507030529 | 15 | 132 | 1.6 | 4.8 | 0.03 | 0.03 | 0.03 | 87 | 1011.3 |
| 20260507030048 | 15 | 132 | 1.6 | 4.8 | 0.03 | 0.03 | 0.03 | 86 | 1011.3 |
| 20260507030037 | 15 | 132 | 3.2 | 4.8 | 0.03 | 0.03 | 0.03 | 87 | 1011.1 |
| 20260507025537 | 15 | 119 | 3.2 | 4.8 | 0.03 | 0.03 | 0.03 | 86 | 1010.9 |
| 20260507025528 | 15 | 119 | 1.6 | 4.8 | 0.03 | 0.03 | 0.03 | 85 | 1011.2 |
| 20260507025035 | 15 | 248 | 0.0 | 0.0 | 0.03 | 0.03 | 0.03 | 85 | 1011.0 |
| 20260507025028 | 15 | 0 | 0.0 | 0.0 | 0.03 | 0.03 | 0.03 | 84 | 1011.3 |
| 20260507024540 | 15 | 0 | 0.0 | 3.2 | 0.03 | 0.03 | 0.03 | 84 | 1011.3 |
| 20260507024032 | 16 | 248 | 0.0 | 3.2 | 0.03 | 0.03 | 0.03 | 83 | 1011.0 |
| 20260507023530 | 16 | 248 | 0.0 | 4.8 | 0.00 | 0.00 | 0.00 | 81 | 1011.5 |
| 20260507023524 | 16 | 248 | 1.6 | 3.2 | 0.00 | 0.00 | 0.00 | 82 | 1011.2 |
| 20260507023047 | 16 | 242 | 0.0 | 4.8 | 0.00 | 0.00 | 0.00 | 79 | 1011.5 |
| 20260507023007 | 16 | 242 | 1.6 | 4.8 | 0.00 | 0.00 | 0.00 | 79 | 1011.3 |
| 20260507022530 | 16 | 0 | 1.6 | 6.4 | 0.00 | 0.00 | 0.00 | 77 | 1011.6 |
| 20260507022510 | 16 | 242 | 1.6 | 4.8 | 0.00 | 0.00 | 0.00 | 78 | 1011.3 |
| 20260507022028 | 16 | 246 | 1.6 | 6.4 | 0.00 | 0.00 | 0.00 | 76 | 1011.6 |
| 20260507022005 | 17 | 246 | 3.2 | 6.4 | 0.00 | 0.00 | 0.00 | 77 | 1011.3 |
| 20260507021546 | 16 | 265 | 1.6 | 6.4 | 0.00 | 0.00 | 0.00 | 76 | 1011.6 |
| 20260507021502 | 17 | 273 | 3.2 | 6.4 | 0.00 | 0.00 | 0.00 | 76 | 1011.3 |
| 20260507021029 | 16 | 266 | 3.2 | 6.4 | 0.00 | 0.00 | 0.00 | 75 | 1011.6 |
| 20260507020530 | 16 | 281 | 3.2 | 6.4 | 0.00 | 0.00 | 0.00 | 75 | 1011.5 |
| 20260507020459 | 17 | 281 | 3.2 | 6.4 | 0.00 | 0.00 | 0.00 | 76 | 1011.2 |
| 20260507020100 | 16 | 300 | 3.2 | 6.4 | 0.00 | 0.00 | 0.00 | 75 | 1011.5 |
| 20260507020002 | 17 | 290 | 3.2 | 6.4 | 0.00 | 0.00 | 0.00 | 76 | 1011.1 |
| 20260507015531 | 16 | 298 | 1.6 | 12.9 | 0.00 | 0.00 | 0.00 | 75 | 1011.3 |
| 20260507015030 | 16 | 315 | 3.2 | 12.9 | 0.00 | 0.00 | 0.00 | 74 | 1011.2 |
| 20260507014950 | 17 | 315 | 3.2 | 12.9 | 0.00 | 0.00 | 0.00 | 75 | 1011.0 |
| 20260507014549 | 16 | 273 | 6.4 | 12.9 | 0.00 | 0.00 | 0.00 | 74 | 1011.3 |
| 20260507014448 | 17 | 289 | 6.4 | 12.9 | 0.00 | 0.00 | 0.00 | 75 | 1011.0 |
| 20260507014030 | 16 | 284 | 4.8 | 11.3 | 0.00 | 0.00 | 0.00 | 74 | 1011.3 |
| 20260507013946 | 17 | 286 | 6.4 | 11.3 | 0.00 | 0.00 | 0.00 | 75 | 1010.9 |
| 20260507013529 | 16 | 273 | 3.2 | 12.9 | 0.00 | 0.00 | 0.00 | 74 | 1011.2 |
| 20260507013049 | 16 | 278 | 4.8 | 12.9 | 0.00 | 0.00 | 0.00 | 74 | 1011.3 |
| 20260507012943 | 17 | 287 | 4.8 | 12.9 | 0.00 | 0.00 | 0.00 | 74 | 1010.9 |
| 20260507012529 | 16 | 265 | 4.8 | 14.5 | 0.00 | 0.00 | 0.00 | 74 | 1011.1 |
| 20260507012029 | 16 | 275 | 6.4 | 14.5 | 0.00 | 0.00 | 0.00 | 74 | 1011.1 |
| 20260507011944 | 16 | 279 | 6.4 | 14.5 | 0.00 | 0.00 | 0.00 | 74 | 1010.9 |
| 20260507011556 | 16 | 283 | 4.8 | 14.5 | 0.00 | 0.00 | 0.00 | 74 | 1011.0 |
| 20260507011029 | 16 | 226 | 6.4 | 14.5 | 0.00 | 0.00 | 0.00 | 74 | 1011.1 |
| 20260507010937 | 16 | 273 | 8.0 | 14.5 | 0.00 | 0.00 | 0.00 | 75 | 1010.8 |
| 20260507010529 | 16 | 263 | 4.8 | 14.5 | 0.00 | 0.00 | 0.00 | 75 | 1011.1 |
| 20260507010438 | 16 | 299 | 6.4 | 14.5 | 0.00 | 0.00 | 0.00 | 76 | 1010.8 |
| 20260507010044 | 15 | 255 | 4.8 | 14.5 | 0.00 | 0.00 | 0.00 | 76 | 1011.1 |
| 20260507005934 | 16 | 270 | 4.8 | 6.4 | 0.00 | 0.00 | 0.00 | 76 | 1010.8 |
| 20260507005529 | 15 | 286 | 3.2 | 11.3 | 0.00 | 0.00 | 0.00 | 76 | 1011.1 |
| 20260507005030 | 15 | 254 | 4.8 | 11.3 | 0.00 | 0.00 | 0.00 | 76 | 1011.1 |
| 20260507004930 | 15 | 273 | 4.8 | 9.7 | 0.00 | 0.00 | 0.00 | 76 | 1010.8 |
| 20260507004552 | 15 | 253 | 1.6 | 11.3 | 0.00 | 0.00 | 0.00 | 75 | 1011.2 |
| 20260507004428 | 15 | 252 | 3.2 | 9.7 | 0.00 | 0.00 | 0.00 | 76 | 1010.8 |
| 20260507004029 | 15 | 244 | 3.2 | 9.7 | 0.00 | 0.00 | 0.00 | 76 | 1011.2 |
| 20260507003530 | 15 | 256 | 3.2 | 6.4 | 0.00 | 0.00 | 0.00 | 76 | 1011.2 |
| 20260507003425 | 15 | 249 | 3.2 | 6.4 | 0.00 | 0.00 | 0.00 | 76 | 1010.9 |
| 20260507003041 | 14 | 238 | 3.2 | 4.8 | 0.00 | 0.00 | 0.00 | 76 | 1011.2 |
| 20260507002924 | 15 | 252 | 3.2 | 4.8 | 0.00 | 0.00 | 0.00 | 76 | 1010.9 |
| 20260507002528 | 14 | 236 | 1.6 | 4.8 | 0.00 | 0.00 | 0.00 | 74 | 1011.3 |
| 20260507002422 | 15 | 222 | 3.2 | 4.8 | 0.00 | 0.00 | 0.00 | 74 | 1011.0 |
| 20260507002029 | 14 | 232 | 0.0 | 3.2 | 0.00 | 0.00 | 0.00 | 73 | 1011.3 |
| 20260507001921 | 15 | 232 | 1.6 | 3.2 | 0.00 | 0.00 | 0.00 | 74 | 1011.0 |
| 20260507001550 | 14 | 0 | 0.0 | 6.4 | 0.00 | 0.00 | 0.00 | 73 | 1011.3 |
| 20260507001028 | 14 | 218 | 1.6 | 6.4 | 0.00 | 0.00 | 0.00 | 74 | 1011.4 |
| 20260507000907 | 15 | 183 | 3.2 | 6.4 | 0.00 | 0.00 | 0.00 | 74 | 1011.1 |
| 20260507000529 | 14 | 0 | 0.0 | 4.8 | 0.00 | 0.00 | 0.00 | 74 | 1011.4 |
| 20260507000042 | 14 | 0 | 1.6 | 4.8 | 0.00 | 0.00 | 0.00 | 74 | 1011.3 |
| 20260506235529 | 14 | 198 | 1.6 | 4.8 | 0.00 | 0.00 | 0.00 | 74 | 1011.3 |
| 20260506235402 | 14 | 199 | 1.6 | 4.8 | 0.00 | 0.00 | 0.00 | 74 | 1011.0 |
| 20260506235030 | 14 | 191 | 1.6 | 4.8 | 0.00 | 0.00 | 0.00 | 74 | 1011.3 |
| 20260506234851 | 14 | 179 | 1.6 | 4.8 | 0.00 | 0.00 | 0.00 | 74 | 1011.0 |
| 20260506234545 | 14 | 196 | 1.6 | 4.8 | 0.00 | 0.00 | 0.00 | 74 | 1011.2 |
| 20260506234029 | 14 | 200 | 1.6 | 6.4 | 0.00 | 0.00 | 0.00 | 74 | 1011.2 |
| 20260506233851 | 14 | 200 | 3.2 | 6.4 | 0.00 | 0.00 | 0.00 | 75 | 1011.0 |
| 20260506233529 | 13 | 198 | 1.6 | 6.4 | 0.00 | 0.00 | 0.00 | 75 | 1011.2 |
| 20260506233339 | 14 | 204 | 3.2 | 6.4 | 0.00 | 0.00 | 0.00 | 76 | 1010.8 |
| 20260506233043 | 13 | 169 | 1.6 | 6.4 | 0.00 | 0.00 | 0.00 | 76 | 1011.1 |
| 20260506232528 | 13 | 197 | 1.6 | 6.4 | 0.00 | 0.00 | 0.00 | 76 | 1011.1 |
| 20260506232332 | 13 | 161 | 1.6 | 6.4 | 0.00 | 0.00 | 0.00 | 77 | 1010.8 |
| 20260506232028 | 13 | 161 | 1.6 | 6.4 | 0.00 | 0.00 | 0.00 | 76 | 1011.0 |
| 20260506231831 | 13 | 161 | 3.2 | 6.4 | 0.00 | 0.00 | 0.00 | 76 | 1010.7 |
| 20260506231541 | 13 | 161 | 0.0 | 0.0 | 0.00 | 0.00 | 0.00 | 75 | 1011.0 |
| 20260506231333 | 13 | 178 | 0.0 | 0.0 | 0.00 | 0.00 | 0.00 | 76 | 1010.7 |
| 20260506231029 | 13 | 0 | 0.0 | 0.0 | 0.00 | 0.00 | 0.00 | 75 | 1010.9 |
| 20260506230529 | 13 | 0 | 0.0 | 0.0 | 0.00 | 0.00 | 0.00 | 75 | 1010.9 |
| 20260506230321 | 13 | 178 | 0.0 | 0.0 | 0.00 | 0.00 | 0.00 | 75 | 1010.6 |
| 20260506230048 | 13 | 0 | 0.0 | 0.0 | 0.00 | 0.00 | 0.00 | 74 | 1011.0 |
| 20260506225819 | 13 | 178 | 0.0 | 0.0 | 0.00 | 0.00 | 0.00 | 75 | 1010.6 |
| 20260506225528 | 13 | 0 | 0.0 | 0.0 | 0.00 | 0.00 | 0.00 | 74 | 1010.9 |
| 20260506225305 | 13 | 178 | 0.0 | 0.0 | 0.00 | 0.00 | 0.00 | 75 | 1010.7 |
| 20260506225028 | 13 | 0 | 0.0 | 0.0 | 0.00 | 0.00 | 0.00 | 74 | 1011.0 |
| 20260506224805 | 14 | 178 | 0.0 | 0.0 | 0.00 | 0.00 | 0.00 | 74 | 1010.6 |
| 20260506224540 | 13 | 0 | 0.0 | 0.0 | 0.00 | 0.00 | 0.00 | 74 | 1010.8 |
| 20260506224259 | 14 | 178 | 0.0 | 0.0 | 0.00 | 0.00 | 0.00 | 74 | 1010.7 |
| 20260506224029 | 13 | 0 | 0.0 | 0.0 | 0.00 | 0.00 | 0.00 | 73 | 1011.0 |
| 20260506223757 | 14 | 178 | 0.0 | 4.8 | 0.00 | 0.00 | 0.00 | 73 | 1010.7 |
| 20260506223529 | 13 | 0 | 0.0 | 4.8 | 0.00 | 0.00 | 0.00 | 73 | 1010.9 |
| 20260506223245 | 14 | 178 | 0.0 | 4.8 | 0.00 | 0.00 | 0.00 | 73 | 1010.7 |
| 20260506223045 | 14 | 0 | 0.0 | 4.8 | 0.00 | 0.00 | 0.00 | 73 | 1010.9 |
| 20260506222744 | 14 | 180 | 1.6 | 3.2 | 0.00 | 0.00 | 0.00 | 73 | 1010.6 |
| 20260506222529 | 14 | 180 | 0.0 | 4.8 | 0.00 | 0.00 | 0.00 | 72 | 1010.9 |
| 20260506222241 | 14 | 195 | 0.0 | 4.8 | 0.00 | 0.00 | 0.00 | 73 | 1010.6 |
| 20260506222030 | 14 | 0 | 0.0 | 4.8 | 0.00 | 0.00 | 0.00 | 72 | 1010.8 |
| 20260506221735 | 14 | 195 | 1.6 | 4.8 | 0.00 | 0.00 | 0.00 | 72 | 1010.6 |
| 20260506221545 | 14 | 195 | 1.6 | 4.8 | 0.00 | 0.00 | 0.00 | 72 | 1010.8 |
| 20260506221234 | 15 | 178 | 1.6 | 4.8 | 0.00 | 0.00 | 0.00 | 72 | 1010.6 |
| 20260506221029 | 14 | 161 | 1.6 | 4.8 | 0.00 | 0.00 | 0.00 | 72 | 1010.8 |
| 20260506220732 | 15 | 157 | 1.6 | 4.8 | 0.00 | 0.00 | 0.00 | 72 | 1010.5 |
| 20260506220529 | 14 | 200 | 0.0 | 4.8 | 0.00 | 0.00 | 0.00 | 71 | 1010.8 |
| 20260506220226 | 15 | 209 | 0.0 | 4.8 | 0.00 | 0.00 | 0.00 | 72 | 1010.5 |
| 20260506220058 | 15 | 0 | 0.0 | 8.0 | 0.00 | 0.00 | 0.00 | 72 | 1010.7 |
| 20260506215728 | 15 | 209 | 1.6 | 9.7 | 0.00 | 0.00 | 0.00 | 72 | 1010.6 |
| 20260506215528 | 15 | 209 | 1.6 | 9.7 | 0.00 | 0.00 | 0.00 | 72 | 1010.8 |
| 20260506215221 | 15 | 213 | 3.2 | 9.7 | 0.00 | 0.00 | 0.00 | 73 | 1010.6 |
| 20260506215028 | 14 | 221 | 4.8 | 9.7 | 0.00 | 0.00 | 0.00 | 73 | 1010.8 |
| 20260506214716 | 14 | 261 | 3.2 | 6.4 | 0.00 | 0.00 | 0.00 | 74 | 1010.6 |
| 20260506214545 | 14 | 215 | 1.6 | 4.8 | 0.00 | 0.00 | 0.00 | 74 | 1010.6 |
| 20260506214030 | 14 | 137 | 0.0 | 0.0 | 0.00 | 0.00 | 0.00 | 74 | 1010.6 |
| 20260506213713 | 14 | 137 | 0.0 | 0.0 | 0.00 | 0.00 | 0.00 | 74 | 1010.2 |
| 20260506213530 | 14 | 0 | 0.0 | 0.0 | 0.00 | 0.00 | 0.00 | 73 | 1010.4 |
| 20260506213050 | 14 | 0 | 0.0 | 0.0 | 0.00 | 0.00 | 0.00 | 73 | 1010.4 |
| 20260506212532 | 14 | 0 | 0.0 | 0.0 | 0.00 | 0.00 | 0.00 | 72 | 1010.5 |
| 20260506212157 | 15 | 137 | 0.0 | 0.0 | 0.00 | 0.00 | 0.00 | 72 | 1010.3 |
| 20260506212030 | 14 | 0 | 0.0 | 0.0 | 0.00 | 0.00 | 0.00 | 71 | 1010.5 |
| 20260506211542 | 14 | 0 | 0.0 | 0.0 | 0.00 | 0.00 | 0.00 | 71 | 1010.5 |
| 20260506211143 | 15 | 137 | 0.0 | 0.0 | 0.00 | 0.00 | 0.00 | 71 | 1010.3 |
| 20260506211028 | 15 | 0 | 0.0 | 0.0 | 0.00 | 0.00 | 0.00 | 71 | 1010.6 |
| 20260506210646 | 15 | 137 | 0.0 | 0.0 | 0.00 | 0.00 | 0.00 | 71 | 1010.2 |
| 20260506210531 | 15 | 0 | 0.0 | 0.0 | 0.00 | 0.00 | 0.00 | 71 | 1010.5 |
| 20260506210130 | 15 | 137 | 0.0 | 0.0 | 0.00 | 0.00 | 0.00 | 71 | 1010.2 |
| 20260506210055 | 15 | 0 | 0.0 | 0.0 | 0.00 | 0.00 | 0.00 | 70 | 1010.3 |
| 20260506205629 | 15 | 137 | 0.0 | 0.0 | 0.00 | 0.00 | 0.00 | 71 | 1010.2 |
| 20260506205531 | 15 | 0 | 0.0 | 0.0 | 0.00 | 0.00 | 0.00 | 70 | 1010.4 |
| 20260506205127 | 15 | 137 | 0.0 | 0.0 | 0.00 | 0.00 | 0.00 | 70 | 1010.2 |
| 20260506205031 | 15 | 0 | 0.0 | 0.0 | 0.00 | 0.00 | 0.00 | 69 | 1010.4 |
| 20260506204625 | 15 | 137 | 0.0 | 0.0 | 0.00 | 0.00 | 0.00 | 69 | 1010.1 |
| 20260506204544 | 15 | 0 | 0.0 | 0.0 | 0.00 | 0.00 | 0.00 | 69 | 1010.3 |
| 20260506204124 | 15 | 137 | 0.0 | 0.0 | 0.00 | 0.00 | 0.00 | 69 | 1010.0 |
| 20260506204032 | 15 | 0 | 0.0 | 0.0 | 0.00 | 0.00 | 0.00 | 69 | 1010.4 |
| 20260506203623 | 15 | 137 | 0.0 | 0.0 | 0.00 | 0.00 | 0.00 | 68 | 1010.0 |
| 20260506203528 | 15 | 0 | 0.0 | 0.0 | 0.00 | 0.00 | 0.00 | 68 | 1010.3 |
| 20260506203130 | 15 | 0 | 0.0 | 0.0 | 0.00 | 0.00 | 0.00 | 67 | 1010.3 |
| 20260506203121 | 15 | 137 | 0.0 | 0.0 | 0.00 | 0.00 | 0.00 | 68 | 1010.0 |
| 20260506202620 | 16 | 137 | 0.0 | 0.0 | 0.00 | 0.00 | 0.00 | 68 | 1010.0 |
| 20260506202530 | 15 | 0 | 0.0 | 0.0 | 0.00 | 0.00 | 0.00 | 67 | 1010.3 |
| 20260506202118 | 16 | 137 | 0.0 | 3.2 | 0.00 | 0.00 | 0.00 | 67 | 1010.0 |
| 20260506202029 | 16 | 0 | 0.0 | 4.8 | 0.00 | 0.00 | 0.00 | 67 | 1010.3 |
| 20260506201616 | 16 | 137 | 0.0 | 4.8 | 0.00 | 0.00 | 0.00 | 67 | 1010.1 |
| 20260506201541 | 16 | 0 | 0.0 | 4.8 | 0.00 | 0.00 | 0.00 | 67 | 1010.3 |
| 20260506201055 | 16 | 128 | 3.2 | 4.8 | 0.00 | 0.00 | 0.00 | 67 | 1010.2 |
| 20260506201030 | 16 | 128 | 1.6 | 4.8 | 0.00 | 0.00 | 0.00 | 67 | 1010.2 |
| 20260506200557 | 16 | 132 | 0.0 | 4.8 | 0.00 | 0.00 | 0.00 | 67 | 1010.1 |
| 20260506200528 | 16 | 0 | 0.0 | 4.8 | 0.00 | 0.00 | 0.00 | 67 | 1010.3 |
| 20260506200052 | 16 | 132 | 3.2 | 4.8 | 0.00 | 0.00 | 0.00 | 67 | 1010.0 |
| 20260506200047 | 16 | 117 | 1.6 | 4.8 | 0.00 | 0.00 | 0.00 | 66 | 1010.3 |
| 20260506195529 | 16 | 122 | 1.6 | 4.8 | 0.00 | 0.00 | 0.00 | 66 | 1010.2 |
| 20260506195043 | 16 | 136 | 3.2 | 4.8 | 0.00 | 0.00 | 0.00 | 66 | 1010.1 |
| 20260506195029 | 16 | 121 | 3.2 | 4.8 | 0.00 | 0.00 | 0.00 | 66 | 1010.4 |
| 20260506194545 | 16 | 126 | 1.6 | 4.8 | 0.00 | 0.00 | 0.00 | 66 | 1010.3 |
| 20260506194541 | 16 | 126 | 1.6 | 4.8 | 0.00 | 0.00 | 0.00 | 66 | 1010.1 |
| 20260506194040 | 16 | 168 | 0.0 | 0.0 | 0.00 | 0.00 | 0.00 | 66 | 1010.0 |
| 20260506194028 | 16 | 0 | 0.0 | 0.0 | 0.00 | 0.00 | 0.00 | 65 | 1010.3 |
| 20260506193541 | 16 | 168 | 0.0 | 0.0 | 0.00 | 0.00 | 0.00 | 65 | 1010.1 |
| 20260506193528 | 16 | 0 | 0.0 | 0.0 | 0.00 | 0.00 | 0.00 | 65 | 1010.3 |
| 20260506193045 | 16 | 0 | 0.0 | 0.0 | 0.00 | 0.00 | 0.00 | 64 | 1010.3 |
| 20260506193022 | 16 | 168 | 0.0 | 0.0 | 0.00 | 0.00 | 0.00 | 65 | 1010.0 |
| 20260506192529 | 16 | 0 | 0.0 | 1.6 | 0.00 | 0.00 | 0.00 | 64 | 1010.3 |
| 20260506192520 | 17 | 168 | 0.0 | 0.0 | 0.00 | 0.00 | 0.00 | 64 | 1010.1 |
| 20260506192029 | 17 | 0 | 0.0 | 1.6 | 0.00 | 0.00 | 0.00 | 63 | 1010.2 |
| 20260506191544 | 17 | 0 | 0.0 | 1.6 | 0.00 | 0.00 | 0.00 | 63 | 1010.1 |
| 20260506191517 | 17 | 168 | 0.0 | 1.6 | 0.00 | 0.00 | 0.00 | 63 | 1010.0 |
| 20260506191029 | 17 | 0 | 0.0 | 3.2 | 0.00 | 0.00 | 0.00 | 62 | 1010.1 |
| 20260506191018 | 17 | 168 | 0.0 | 3.2 | 0.00 | 0.00 | 0.00 | 62 | 1009.9 |
| 20260506190529 | 17 | 0 | 0.0 | 3.2 | 0.00 | 0.00 | 0.00 | 61 | 1010.2 |
| 20260506190513 | 18 | 168 | 0.0 | 3.2 | 0.00 | 0.00 | 0.00 | 62 | 1009.9 |
| 20260506190048 | 17 | 168 | 0.0 | 3.2 | 0.00 | 0.00 | 0.00 | 61 | 1010.1 |
| 20260506190012 | 18 | 168 | 1.6 | 3.2 | 0.00 | 0.00 | 0.00 | 61 | 1009.9 |
| 20260506185531 | 18 | 0 | 0.0 | 1.6 | 0.00 | 0.00 | 0.00 | 60 | 1010.0 |
| 20260506185029 | 18 | 0 | 0.0 | 3.2 | 0.00 | 0.00 | 0.00 | 59 | 1010.0 |
| 20260506185008 | 18 | 168 | 0.0 | 3.2 | 0.00 | 0.00 | 0.00 | 59 | 1009.8 |
| 20260506184554 | 18 | 0 | 0.0 | 3.2 | 0.00 | 0.00 | 0.00 | 58 | 1010.0 |
| 20260506184507 | 18 | 168 | 0.0 | 3.2 | 0.00 | 0.00 | 0.00 | 58 | 1009.8 |
| 20260506184029 | 18 | 0 | 0.0 | 3.2 | 0.00 | 0.00 | 0.00 | 57 | 1010.0 |
| 20260506184005 | 19 | 168 | 1.6 | 3.2 | 0.00 | 0.00 | 0.00 | 58 | 1009.7 |
| 20260506183529 | 19 | 173 | 0.0 | 1.6 | 0.00 | 0.00 | 0.00 | 57 | 1010.0 |
| 20260506183044 | 19 | 0 | 0.0 | 3.2 | 0.00 | 0.00 | 0.00 | 56 | 1009.9 |
| 20260506182951 | 20 | 173 | 0.0 | 3.2 | 0.00 | 0.00 | 0.00 | 56 | 1009.7 |
| 20260506182528 | 20 | 0 | 0.0 | 3.2 | 0.00 | 0.00 | 0.00 | 55 | 1009.8 |
| 20260506182451 | 20 | 173 | 1.6 | 3.2 | 0.00 | 0.00 | 0.00 | 55 | 1009.6 |
| 20260506182031 | 20 | 0 | 0.0 | 3.2 | 0.00 | 0.00 | 0.00 | 53 | 1009.8 |
| 20260506181541 | 21 | 0 | 0.0 | 4.8 | 0.00 | 0.00 | 0.00 | 52 | 1009.7 |
| 20260506181442 | 21 | 175 | 0.0 | 3.2 | 0.00 | 0.00 | 0.00 | 53 | 1009.5 |
| 20260506181030 | 21 | 0 | 0.0 | 4.8 | 0.00 | 0.00 | 0.00 | 52 | 1009.7 |
| 20260506180530 | 21 | 168 | 0.0 | 8.0 | 0.00 | 0.00 | 0.00 | 50 | 1009.6 |
| 20260506180439 | 21 | 173 | 1.6 | 6.4 | 0.00 | 0.00 | 0.00 | 51 | 1009.4 |
| 20260506180045 | 21 | 0 | 1.6 | 8.0 | 0.00 | 0.00 | 0.00 | 49 | 1009.6 |
| 20260506175941 | 22 | 166 | 3.2 | 8.0 | 0.00 | 0.00 | 0.00 | 50 | 1009.4 |
| 20260506175529 | 22 | 177 | 3.2 | 9.7 | 0.00 | 0.00 | 0.00 | 48 | 1009.6 |
| 20260506175434 | 22 | 189 | 4.8 | 9.7 | 0.00 | 0.00 | 0.00 | 49 | 1009.4 |
| 20260506175029 | 22 | 161 | 3.2 | 9.7 | 0.00 | 0.00 | 0.00 | 48 | 1009.6 |
| 20260506174928 | 22 | 171 | 4.8 | 9.7 | 0.00 | 0.00 | 0.00 | 48 | 1009.3 |
| 20260506174543 | 22 | 173 | 3.2 | 9.7 | 0.00 | 0.00 | 0.00 | 47 | 1009.5 |
| 20260506174029 | 22 | 169 | 4.8 | 11.3 | 0.00 | 0.00 | 0.00 | 47 | 1009.5 |
| 20260506173925 | 22 | 175 | 4.8 | 11.3 | 0.00 | 0.00 | 0.00 | 47 | 1009.2 |
| 20260506173530 | 22 | 158 | 3.2 | 11.3 | 0.00 | 0.00 | 0.00 | 46 | 1009.5 |
| 20260506173423 | 23 | 175 | 3.2 | 11.3 | 0.00 | 0.00 | 0.00 | 46 | 1009.3 |
| 20260506173053 | 22 | 145 | 3.2 | 11.3 | 0.00 | 0.00 | 0.00 | 46 | 1009.5 |
| 20260506172922 | 23 | 160 | 3.2 | 11.3 | 0.00 | 0.00 | 0.00 | 46 | 1009.2 |
| 20260506172529 | 22 | 140 | 4.8 | 12.9 | 0.00 | 0.00 | 0.00 | 46 | 1009.5 |
| 20260506172421 | 23 | 163 | 4.8 | 12.9 | 0.00 | 0.00 | 0.00 | 46 | 1009.2 |
| 20260506172030 | 23 | 178 | 6.4 | 12.9 | 0.00 | 0.00 | 0.00 | 45 | 1009.5 |
| 20260506171919 | 23 | 161 | 8.0 | 12.9 | 0.00 | 0.00 | 0.00 | 46 | 1009.2 |
| 20260506171544 | 23 | 162 | 4.8 | 12.9 | 0.00 | 0.00 | 0.00 | 45 | 1009.5 |
| 20260506171417 | 23 | 157 | 6.4 | 12.9 | 0.00 | 0.00 | 0.00 | 46 | 1009.2 |
| 20260506171029 | 23 | 154 | 4.8 | 11.3 | 0.00 | 0.00 | 0.00 | 45 | 1009.4 |
| 20260506170916 | 23 | 163 | 4.8 | 11.3 | 0.00 | 0.00 | 0.00 | 45 | 1009.3 |
| 20260506170531 | 23 | 159 | 4.8 | 12.9 | 0.00 | 0.00 | 0.00 | 44 | 1009.5 |
| 20260506170043 | 23 | 179 | 4.8 | 14.5 | 0.00 | 0.00 | 0.00 | 44 | 1009.5 |
| 20260506165912 | 23 | 192 | 6.4 | 14.5 | 0.00 | 0.00 | 0.00 | 45 | 1009.2 |
| 20260506165529 | 23 | 153 | 4.8 | 14.5 | 0.00 | 0.00 | 0.00 | 44 | 1009.5 |
| 20260506165415 | 23 | 171 | 4.8 | 14.5 | 0.00 | 0.00 | 0.00 | 44 | 1009.2 |
| 20260506165029 | 23 | 177 | 4.8 | 14.5 | 0.00 | 0.00 | 0.00 | 43 | 1009.5 |
| 20260506164547 | 23 | 163 | 6.4 | 16.1 | 0.00 | 0.00 | 0.00 | 43 | 1009.5 |
| 20260506164407 | 24 | 175 | 6.4 | 16.1 | 0.00 | 0.00 | 0.00 | 44 | 1009.3 |
| 20260506164028 | 23 | 151 | 6.4 | 19.3 | 0.00 | 0.00 | 0.00 | 42 | 1009.5 |
| 20260506163531 | 24 | 148 | 9.7 | 19.3 | 0.00 | 0.00 | 0.00 | 42 | 1009.5 |
| 20260506163404 | 24 | 182 | 9.7 | 19.3 | 0.00 | 0.00 | 0.00 | 42 | 1009.3 |
| 20260506163140 | 24 | 196 | 6.4 | 16.1 | 0.00 | 0.00 | 0.00 | 42 | 1009.6 |
| 20260506162530 | 25 | 196 | 8.0 | 17.7 | 0.00 | 0.00 | 0.00 | 41 | 1009.5 |
| 20260506162029 | 25 | 156 | 6.4 | 19.3 | 0.00 | 0.00 | 0.00 | 41 | 1009.6 |
| 20260506161900 | 25 | 186 | 8.0 | 19.3 | 0.00 | 0.00 | 0.00 | 41 | 1009.4 |
| 20260506161544 | 25 | 161 | 8.0 | 22.5 | 0.00 | 0.00 | 0.00 | 40 | 1009.6 |
| 20260506161358 | 25 | 209 | 4.8 | 20.9 | 0.00 | 0.00 | 0.00 | 41 | 1009.4 |
| 20260506161030 | 25 | 235 | 9.7 | 22.5 | 0.00 | 0.00 | 0.00 | 40 | 1009.6 |
| 20260506160856 | 25 | 196 | 11.3 | 20.9 | 0.00 | 0.00 | 0.00 | 40 | 1009.4 |
| 20260506160530 | 25 | 161 | 8.0 | 20.9 | 0.00 | 0.00 | 0.00 | 40 | 1009.6 |
| 20260506160354 | 25 | 196 | 8.0 | 17.7 | 0.00 | 0.00 | 0.00 | 40 | 1009.4 |
| 20260506160045 | 25 | 190 | 8.0 | 16.1 | 0.00 | 0.00 | 0.00 | 40 | 1009.7 |
| 20260506155853 | 25 | 198 | 8.0 | 16.1 | 0.00 | 0.00 | 0.00 | 40 | 1009.5 |
| 20260506155528 | 25 | 213 | 6.4 | 16.1 | 0.00 | 0.00 | 0.00 | 40 | 1009.8 |
| 20260506155355 | 25 | 178 | 8.0 | 16.1 | 0.00 | 0.00 | 0.00 | 41 | 1009.5 |
| 20260506155029 | 25 | 170 | 6.4 | 22.5 | 0.00 | 0.00 | 0.00 | 40 | 1009.8 |
| 20260506154851 | 25 | 148 | 6.4 | 24.1 | 0.00 | 0.00 | 0.00 | 42 | 1009.6 |
| 20260506154552 | 25 | 169 | 8.0 | 24.1 | 0.00 | 0.00 | 0.00 | 40 | 1009.9 |
| 20260506154348 | 25 | 155 | 9.7 | 24.1 | 0.00 | 0.00 | 0.00 | 40 | 1009.6 |
| 20260506154030 | 25 | 186 | 12.9 | 24.1 | 0.00 | 0.00 | 0.00 | 39 | 1009.9 |
| 20260506153846 | 25 | 178 | 11.3 | 24.1 | 0.00 | 0.00 | 0.00 | 40 | 1009.6 |
| 20260506153530 | 25 | 166 | 11.3 | 24.1 | 0.00 | 0.00 | 0.00 | 40 | 1009.9 |
| 20260506153040 | 25 | 156 | 8.0 | 25.7 | 0.00 | 0.00 | 0.00 | 40 | 1010.0 |
| 20260506152843 | 26 | 160 | 8.0 | 25.7 | 0.00 | 0.00 | 0.00 | 40 | 1009.8 |
| 20260506152529 | 26 | 183 | 6.4 | 25.7 | 0.00 | 0.00 | 0.00 | 40 | 1010.0 |
| 20260506152341 | 26 | 247 | 8.0 | 25.7 | 0.00 | 0.00 | 0.00 | 39 | 1009.7 |
| 20260506152029 | 25 | 237 | 11.3 | 25.7 | 0.00 | 0.00 | 0.00 | 39 | 1009.9 |
| 20260506151839 | 26 | 252 | 11.3 | 20.9 | 0.00 | 0.00 | 0.00 | 39 | 1009.7 |
| 20260506151547 | 25 | 239 | 9.7 | 22.5 | 0.00 | 0.00 | 0.00 | 39 | 1010.0 |
| 20260506151338 | 25 | 162 | 8.0 | 22.5 | 0.00 | 0.00 | 0.00 | 40 | 1009.8 |
| 20260506151029 | 25 | 181 | 9.7 | 22.5 | 0.00 | 0.00 | 0.00 | 39 | 1010.1 |
| 20260506150529 | 25 | 195 | 4.8 | 24.1 | 0.00 | 0.00 | 0.00 | 40 | 1010.1 |
| 20260506150334 | 25 | 146 | 6.4 | 22.5 | 0.00 | 0.00 | 0.00 | 41 | 1009.9 |
| 20260506150045 | 25 | 214 | 9.7 | 25.7 | 0.00 | 0.00 | 0.00 | 40 | 1010.2 |
| 20260506145834 | 25 | 173 | 11.3 | 24.1 | 0.00 | 0.00 | 0.00 | 40 | 1010.0 |
| 20260506145530 | 25 | 174 | 11.3 | 25.7 | 0.00 | 0.00 | 0.00 | 39 | 1010.2 |
| 20260506145336 | 25 | 271 | 14.5 | 24.1 | 0.00 | 0.00 | 0.00 | 40 | 1010.0 |
| 20260506145028 | 25 | 144 | 12.9 | 24.1 | 0.00 | 0.00 | 0.00 | 40 | 1010.3 |
| 20260506144830 | 26 | 218 | 16.1 | 22.5 | 0.00 | 0.00 | 0.00 | 39 | 1010.1 |
| 20260506144542 | 26 | 126 | 9.7 | 30.6 | 0.00 | 0.00 | 0.00 | 39 | 1010.3 |
| 20260506144329 | 26 | 192 | 12.9 | 27.4 | 0.00 | 0.00 | 0.00 | 39 | 1010.0 |
| 20260506144029 | 26 | 218 | 12.9 | 30.6 | 0.00 | 0.00 | 0.00 | 39 | 1010.3 |
| 20260506143827 | 26 | 240 | 14.5 | 27.4 | 0.00 | 0.00 | 0.00 | 39 | 1010.1 |
| 20260506143530 | 26 | 205 | 6.4 | 25.7 | 0.00 | 0.00 | 0.00 | 39 | 1010.4 |
| 20260506143325 | 26 | 181 | 9.7 | 27.4 | 0.00 | 0.00 | 0.00 | 40 | 1010.1 |
| 20260506143042 | 26 | 153 | 8.0 | 27.4 | 0.00 | 0.00 | 0.00 | 39 | 1010.4 |
| 20260506142823 | 26 | 215 | 9.7 | 27.4 | 0.00 | 0.00 | 0.00 | 39 | 1010.2 |
| 20260506142529 | 26 | 250 | 11.3 | 27.4 | 0.00 | 0.00 | 0.00 | 38 | 1010.4 |
| 20260506142322 | 27 | 187 | 9.7 | 27.4 | 0.00 | 0.00 | 0.00 | 40 | 1010.2 |
| 20260506142029 | 26 | 209 | 11.3 | 27.4 | 0.00 | 0.00 | 0.00 | 38 | 1010.4 |
| 20260506141541 | 26 | 221 | 11.3 | 27.4 | 0.00 | 0.00 | 0.00 | 39 | 1010.4 |
| 20260506141319 | 27 | 221 | 14.5 | 24.1 | 0.00 | 0.00 | 0.00 | 39 | 1010.3 |
| 20260506141029 | 26 | 231 | 11.3 | 24.1 | 0.00 | 0.00 | 0.00 | 38 | 1010.5 |
| 20260506140818 | 26 | 162 | 14.5 | 24.1 | 0.00 | 0.00 | 0.00 | 39 | 1010.2 |
| 20260506140528 | 26 | 198 | 9.7 | 27.4 | 0.00 | 0.00 | 0.00 | 39 | 1010.5 |
| 20260506140316 | 26 | 216 | 11.3 | 24.1 | 0.00 | 0.00 | 0.00 | 39 | 1010.2 |
| 20260506140041 | 26 | 211 | 12.9 | 27.4 | 0.00 | 0.00 | 0.00 | 39 | 1010.5 |
| 20260506135814 | 26 | 154 | 14.5 | 25.7 | 0.00 | 0.00 | 0.00 | 39 | 1010.3 |
| 20260506135529 | 26 | 172 | 11.3 | 27.4 | 0.00 | 0.00 | 0.00 | 40 | 1010.6 |
| 20260506135316 | 26 | 191 | 14.5 | 25.7 | 0.00 | 0.00 | 0.00 | 39 | 1010.3 |
| 20260506135029 | 26 | 167 | 14.5 | 27.4 | 0.00 | 0.00 | 0.00 | 39 | 1010.6 |
| 20260506134811 | 27 | 205 | 14.5 | 27.4 | 0.00 | 0.00 | 0.00 | 38 | 1010.4 |
| 20260506134545 | 26 | 163 | 8.0 | 30.6 | 0.00 | 0.00 | 0.00 | 39 | 1010.6 |
| 20260506134309 | 26 | 140 | 9.7 | 30.6 | 0.00 | 0.00 | 0.00 | 40 | 1010.3 |
| 20260506134028 | 26 | 198 | 12.9 | 30.6 | 0.00 | 0.00 | 0.00 | 40 | 1010.7 |
| 20260506133807 | 26 | 216 | 12.9 | 30.6 | 0.00 | 0.00 | 0.00 | 40 | 1010.4 |
| 20260506133528 | 25 | 352 | 12.9 | 25.7 | 0.00 | 0.00 | 0.00 | 40 | 1010.7 |
| 20260506133306 | 26 | 254 | 16.1 | 25.7 | 0.00 | 0.00 | 0.00 | 40 | 1010.5 |
| 20260506133047 | 26 | 258 | 16.1 | 29.0 | 0.00 | 0.00 | 0.00 | 40 | 1010.8 |
| 20260506132804 | 26 | 191 | 14.5 | 25.7 | 0.00 | 0.00 | 0.00 | 40 | 1010.5 |
| 20260506132527 | 25 | 220 | 11.3 | 33.8 | 0.00 | 0.00 | 0.00 | 39 | 1010.9 |
| 20260506132031 | 25 | 211 | 12.9 | 33.8 | 0.00 | 0.00 | 0.00 | 42 | 1010.9 |
| 20260506131801 | 25 | 159 | 14.5 | 30.6 | 0.00 | 0.00 | 0.00 | 41 | 1010.6 |
| 20260506131542 | 25 | 165 | 11.3 | 32.2 | 0.00 | 0.00 | 0.00 | 41 | 1010.9 |
| 20260506131259 | 25 | 157 | 16.1 | 30.6 | 0.00 | 0.00 | 0.00 | 41 | 1010.6 |
| 20260506131029 | 25 | 157 | 11.3 | 30.6 | 0.00 | 0.00 | 0.00 | 41 | 1011.0 |
| 20260506130758 | 25 | 139 | 11.3 | 30.6 | 0.00 | 0.00 | 0.00 | 42 | 1010.7 |
| 20260506130529 | 25 | 188 | 12.9 | 30.6 | 0.00 | 0.00 | 0.00 | 41 | 1010.9 |
| 20260506130256 | 25 | 205 | 14.5 | 30.6 | 0.00 | 0.00 | 0.00 | 40 | 1010.7 |
| 20260506130041 | 25 | 198 | 8.0 | 25.7 | 0.00 | 0.00 | 0.00 | 40 | 1010.9 |
| 20260506125755 | 26 | 188 | 11.3 | 25.7 | 0.00 | 0.00 | 0.00 | 41 | 1010.7 |
| 20260506125528 | 26 | 126 | 11.3 | 32.2 | 0.00 | 0.00 | 0.00 | 40 | 1011.0 |
| 20260506125257 | 26 | 224 | 8.0 | 30.6 | 0.00 | 0.00 | 0.00 | 39 | 1010.7 |
| 20260506125028 | 26 | 211 | 12.9 | 32.2 | 0.00 | 0.00 | 0.00 | 39 | 1011.0 |
| 20260506124544 | 26 | 241 | 12.9 | 24.1 | 0.00 | 0.00 | 0.00 | 38 | 1010.9 |
| 20260506124251 | 26 | 244 | 12.9 | 27.4 | 0.00 | 0.00 | 0.00 | 39 | 1010.7 |
| 20260506124028 | 26 | 220 | 9.7 | 27.4 | 0.00 | 0.00 | 0.00 | 40 | 1011.0 |
| 20260506123748 | 26 | 237 | 11.3 | 27.4 | 0.00 | 0.00 | 0.00 | 39 | 1010.8 |
| 20260506123528 | 26 | 153 | 12.9 | 29.0 | 0.00 | 0.00 | 0.00 | 38 | 1011.1 |
| 20260506123247 | 26 | 187 | 12.9 | 27.4 | 0.00 | 0.00 | 0.00 | 41 | 1010.8 |
| 20260506123050 | 26 | 171 | 9.7 | 29.0 | 0.00 | 0.00 | 0.00 | 39 | 1011.2 |
| 20260506122745 | 26 | 226 | 14.5 | 27.4 | 0.00 | 0.00 | 0.00 | 40 | 1010.8 |
| 20260506122528 | 26 | 205 | 14.5 | 29.0 | 0.00 | 0.00 | 0.00 | 40 | 1011.1 |
| 20260506122243 | 26 | 165 | 12.9 | 24.1 | 0.00 | 0.00 | 0.00 | 41 | 1010.9 |
| 20260506122028 | 25 | 137 | 9.7 | 25.7 | 0.00 | 0.00 | 0.00 | 41 | 1011.1 |
| 20260506121742 | 26 | 258 | 12.9 | 24.1 | 0.00 | 0.00 | 0.00 | 40 | 1011.0 |
| 20260506121553 | 26 | 165 | 14.5 | 27.4 | 0.00 | 0.00 | 0.00 | 39 | 1011.2 |
| 20260506121241 | 26 | 245 | 9.7 | 24.1 | 0.00 | 0.00 | 0.00 | 41 | 1010.9 |
| 20260506121028 | 26 | 167 | 11.3 | 27.4 | 0.00 | 0.00 | 0.00 | 41 | 1011.1 |
| 20260506120739 | 26 | 180 | 11.3 | 24.1 | 0.00 | 0.00 | 0.00 | 40 | 1010.9 |
| 20260506120529 | 26 | 221 | 11.3 | 25.7 | 0.00 | 0.00 | 0.00 | 41 | 1011.1 |
| 20260506120237 | 26 | 185 | 8.0 | 22.5 | 0.00 | 0.00 | 0.00 | 42 | 1011.0 |
| 20260506120044 | 26 | 163 | 11.3 | 25.7 | 0.00 | 0.00 | 0.00 | 40 | 1011.2 |
| 20260506115735 | 26 | 176 | 14.5 | 22.5 | 0.00 | 0.00 | 0.00 | 42 | 1011.1 |
| 20260506115530 | 25 | 207 | 8.0 | 25.7 | 0.00 | 0.00 | 0.00 | 42 | 1011.3 |
| 20260506115237 | 25 | 223 | 11.3 | 22.5 | 0.00 | 0.00 | 0.00 | 42 | 1011.1 |
| 20260506115028 | 25 | 192 | 11.3 | 25.7 | 0.00 | 0.00 | 0.00 | 41 | 1011.4 |
| 20260506114732 | 25 | 165 | 12.9 | 24.1 | 0.00 | 0.00 | 0.00 | 43 | 1011.0 |
| 20260506114542 | 25 | 157 | 11.3 | 25.7 | 0.00 | 0.00 | 0.00 | 42 | 1011.3 |
| 20260506114230 | 25 | 194 | 12.9 | 29.0 | 0.00 | 0.00 | 0.00 | 43 | 1011.0 |
| 20260506114028 | 25 | 223 | 12.9 | 32.2 | 0.00 | 0.00 | 0.00 | 42 | 1011.3 |
| 20260506113728 | 25 | 187 | 14.5 | 29.0 | 0.00 | 0.00 | 0.00 | 43 | 1011.2 |
| 20260506113532 | 24 | 197 | 14.5 | 32.2 | 0.00 | 0.00 | 0.00 | 42 | 1011.5 |
| 20260506113227 | 25 | 192 | 9.7 | 27.4 | 0.00 | 0.00 | 0.00 | 42 | 1011.1 |
| 20260506113041 | 25 | 204 | 11.3 | 27.4 | 0.00 | 0.00 | 0.00 | 41 | 1011.4 |
| 20260506112726 | 25 | 173 | 11.3 | 27.4 | 0.00 | 0.00 | 0.00 | 42 | 1011.3 |
| 20260506112532 | 25 | 175 | 11.3 | 27.4 | 0.00 | 0.00 | 0.00 | 41 | 1011.5 |
| 20260506112224 | 25 | 193 | 14.5 | 24.1 | 0.00 | 0.00 | 0.00 | 41 | 1011.2 |
| 20260506112030 | 25 | 210 | 12.9 | 30.6 | 0.00 | 0.00 | 0.00 | 41 | 1011.5 |
| 20260506111722 | 25 | 162 | 12.9 | 30.6 | 0.00 | 0.00 | 0.00 | 42 | 1011.3 |
| 20260506111547 | 25 | 166 | 11.3 | 30.6 | 0.00 | 0.00 | 0.00 | 42 | 1011.6 |
| 20260506111029 | 25 | 171 | 9.7 | 25.7 | 0.00 | 0.00 | 0.00 | 42 | 1011.6 |
| 20260506110719 | 25 | 218 | 9.7 | 25.7 | 0.00 | 0.00 | 0.00 | 42 | 1011.3 |
| 20260506110528 | 25 | 218 | 9.7 | 25.7 | 0.00 | 0.00 | 0.00 | 41 | 1011.6 |
| 20260506110218 | 25 | 198 | 12.9 | 25.7 | 0.00 | 0.00 | 0.00 | 42 | 1011.4 |
| 20260506110045 | 25 | 208 | 12.9 | 25.7 | 0.00 | 0.00 | 0.00 | 41 | 1011.6 |
| 20260506105528 | 24 | 153 | 8.0 | 24.1 | 0.00 | 0.00 | 0.00 | 43 | 1011.7 |
| 20260506105218 | 24 | 211 | 12.9 | 24.1 | 0.00 | 0.00 | 0.00 | 43 | 1011.4 |
| 20260506105027 | 24 | 210 | 11.3 | 24.1 | 0.00 | 0.00 | 0.00 | 42 | 1011.8 |
| 20260506104712 | 24 | 210 | 14.5 | 29.0 | 0.00 | 0.00 | 0.00 | 43 | 1011.4 |
| 20260506104547 | 23 | 241 | 11.3 | 29.0 | 0.00 | 0.00 | 0.00 | 43 | 1011.7 |
| 20260506104211 | 24 | 171 | 12.9 | 29.0 | 0.00 | 0.00 | 0.00 | 43 | 1011.5 |
| 20260506104029 | 24 | 185 | 14.5 | 30.6 | 0.00 | 0.00 | 0.00 | 42 | 1011.8 |
| 20260506103529 | 24 | 182 | 14.5 | 32.2 | 0.00 | 0.00 | 0.00 | 42 | 1011.9 |
| 20260506103208 | 24 | 186 | 17.7 | 30.6 | 0.00 | 0.00 | 0.00 | 42 | 1011.6 |
| 20260506103045 | 24 | 185 | 16.1 | 32.2 | 0.00 | 0.00 | 0.00 | 41 | 1011.9 |
| 20260506102706 | 25 | 207 | 17.7 | 30.6 | 0.00 | 0.00 | 0.00 | 42 | 1011.5 |
| 20260506102530 | 24 | 200 | 14.5 | 29.0 | 0.00 | 0.00 | 0.00 | 41 | 1011.8 |
| 20260506102205 | 25 | 166 | 11.3 | 27.4 | 0.00 | 0.00 | 0.00 | 42 | 1011.6 |
| 20260506102032 | 25 | 244 | 12.9 | 29.0 | 0.00 | 0.00 | 0.00 | 42 | 1011.9 |
| 20260506101703 | 25 | 223 | 12.9 | 32.2 | 0.00 | 0.00 | 0.00 | 41 | 1011.5 |
| 20260506101541 | 25 | 236 | 12.9 | 33.8 | 0.00 | 0.00 | 0.00 | 41 | 1011.8 |
| 20260506101201 | 25 | 207 | 16.1 | 32.2 | 0.00 | 0.00 | 0.00 | 40 | 1011.6 |
| 20260506101028 | 25 | 200 | 14.5 | 33.8 | 0.00 | 0.00 | 0.00 | 40 | 1012.0 |
| 20260506100659 | 25 | 232 | 16.1 | 30.6 | 0.00 | 0.00 | 0.00 | 41 | 1011.7 |
| 20260506100549 | 25 | 212 | 12.9 | 30.6 | 0.00 | 0.00 | 0.00 | 40 | 1011.8 |
| 20260506100158 | 25 | 192 | 16.1 | 30.6 | 0.00 | 0.00 | 0.00 | 41 | 1011.7 |
| 20260506100040 | 25 | 231 | 11.3 | 29.0 | 0.00 | 0.00 | 0.00 | 40 | 1011.9 |
| 20260506095701 | 25 | 225 | 12.9 | 30.6 | 0.00 | 0.00 | 0.00 | 42 | 1011.7 |
| 20260506095528 | 25 | 232 | 14.5 | 35.4 | 0.00 | 0.00 | 0.00 | 42 | 1012.0 |
| 20260506095029 | 24 | 166 | 14.5 | 35.4 | 0.00 | 0.00 | 0.00 | 42 | 1012.0 |
| 20260506094653 | 25 | 242 | 16.1 | 29.0 | 0.00 | 0.00 | 0.00 | 42 | 1011.7 |
| 20260506094546 | 24 | 217 | 14.5 | 35.4 | 0.00 | 0.00 | 0.00 | 42 | 1012.0 |
| 20260506094151 | 25 | 241 | 19.3 | 29.0 | 0.00 | 0.00 | 0.00 | 42 | 1011.7 |
| 20260506094027 | 24 | 250 | 12.9 | 29.0 | 0.00 | 0.00 | 0.00 | 42 | 1011.9 |
| 20260506093528 | 24 | 144 | 11.3 | 22.5 | 0.00 | 0.00 | 0.00 | 43 | 1012.0 |
| 20260506093148 | 24 | 154 | 11.3 | 22.5 | 0.00 | 0.00 | 0.00 | 45 | 1011.7 |
| 20260506093045 | 24 | 223 | 9.7 | 22.5 | 0.00 | 0.00 | 0.00 | 44 | 1012.0 |
| 20260506092646 | 24 | 163 | 11.3 | 19.3 | 0.00 | 0.00 | 0.00 | 45 | 1011.7 |
| 20260506092530 | 23 | 205 | 11.3 | 25.7 | 0.00 | 0.00 | 0.00 | 45 | 1011.9 |
| 20260506092144 | 24 | 159 | 8.0 | 24.1 | 0.00 | 0.00 | 0.00 | 46 | 1011.8 |
| 20260506092028 | 23 | 250 | 9.7 | 25.7 | 0.00 | 0.00 | 0.00 | 45 | 1012.0 |
| 20260506091643 | 23 | 185 | 14.5 | 27.4 | 0.00 | 0.00 | 0.00 | 47 | 1011.7 |
| 20260506091542 | 23 | 211 | 12.9 | 32.2 | 0.00 | 0.00 | 0.00 | 47 | 1012.0 |
| 20260506091142 | 23 | 237 | 14.5 | 29.0 | 0.00 | 0.00 | 0.00 | 46 | 1011.7 |
| 20260506091029 | 23 | 200 | 14.5 | 32.2 | 0.00 | 0.00 | 0.00 | 46 | 1012.0 |
| 20260506090640 | 23 | 257 | 14.5 | 29.0 | 0.00 | 0.00 | 0.00 | 46 | 1011.8 |
| 20260506090527 | 23 | 216 | 14.5 | 27.4 | 0.00 | 0.00 | 0.00 | 47 | 1012.1 |
| 20260506090139 | 23 | 202 | 14.5 | 27.4 | 0.00 | 0.00 | 0.00 | 48 | 1011.8 |
| 20260506090046 | 22 | 238 | 12.9 | 27.4 | 0.00 | 0.00 | 0.00 | 47 | 1012.0 |
| 20260506085641 | 23 | 163 | 9.7 | 27.4 | 0.00 | 0.00 | 0.00 | 49 | 1011.7 |
| 20260506085529 | 22 | 166 | 6.4 | 27.4 | 0.00 | 0.00 | 0.00 | 49 | 1012.0 |
| 20260506085136 | 22 | 169 | 12.9 | 27.4 | 0.00 | 0.00 | 0.00 | 49 | 1011.8 |
| 20260506085029 | 22 | 173 | 12.9 | 27.4 | 0.00 | 0.00 | 0.00 | 50 | 1012.1 |
| 20260506084633 | 22 | 151 | 12.9 | 27.4 | 0.00 | 0.00 | 0.00 | 51 | 1012.0 |
| 20260506084545 | 22 | 180 | 11.3 | 22.5 | 0.00 | 0.00 | 0.00 | 50 | 1012.1 |
| 20260506084132 | 22 | 250 | 11.3 | 20.9 | 0.00 | 0.00 | 0.00 | 50 | 1011.7 |
| 20260506084030 | 22 | 227 | 9.7 | 25.7 | 0.00 | 0.00 | 0.00 | 51 | 1012.1 |
| 20260506083630 | 22 | 188 | 12.9 | 25.7 | 0.00 | 0.00 | 0.00 | 51 | 1011.8 |
| 20260506083531 | 22 | 196 | 12.9 | 25.7 | 0.00 | 0.00 | 0.00 | 50 | 1012.1 |
| 20260506083049 | 21 | 183 | 12.9 | 27.4 | 0.00 | 0.00 | 0.00 | 51 | 1012.0 |
| 20260506082628 | 21 | 253 | 8.0 | 27.4 | 0.00 | 0.00 | 0.00 | 52 | 1011.8 |
| 20260506082532 | 21 | 197 | 12.9 | 27.4 | 0.00 | 0.00 | 0.00 | 51 | 1012.1 |
| 20260506082126 | 22 | 158 | 14.5 | 22.5 | 0.00 | 0.00 | 0.00 | 52 | 1011.8 |
| 20260506082029 | 21 | 160 | 11.3 | 24.1 | 0.00 | 0.00 | 0.00 | 53 | 1012.0 |
| 20260506081625 | 21 | 248 | 9.7 | 25.7 | 0.00 | 0.00 | 0.00 | 54 | 1011.8 |
| 20260506081548 | 21 | 241 | 9.7 | 25.7 | 0.00 | 0.00 | 0.00 | 52 | 1012.0 |
| 20260506081123 | 21 | 216 | 9.7 | 25.7 | 0.00 | 0.00 | 0.00 | 54 | 1011.9 |
| 20260506081029 | 21 | 240 | 11.3 | 30.6 | 0.00 | 0.00 | 0.00 | 52 | 1012.2 |
| 20260506080528 | 21 | 185 | 12.9 | 30.6 | 0.00 | 0.00 | 0.00 | 53 | 1012.2 |
| 20260506080119 | 21 | 185 | 14.5 | 24.1 | 0.00 | 0.00 | 0.00 | 54 | 1011.9 |
| 20260506073110 | 20 | 231 | 9.7 | 22.5 | 0.00 | 0.00 | 0.00 | 56 | 1012.0 |
| 20260506073042 | 20 | 244 | 11.3 | 24.1 | 0.00 | 0.00 | 0.00 | 56 | 1012.2 |
| 20260506072608 | 20 | 185 | 12.9 | 20.9 | 0.00 | 0.00 | 0.00 | 57 | 1012.0 |
| 20260506072530 | 20 | 160 | 11.3 | 24.1 | 0.00 | 0.00 | 0.00 | 56 | 1012.2 |
| 20260506072107 | 20 | 243 | 6.4 | 20.9 | 0.00 | 0.00 | 0.00 | 58 | 1012.0 |
| 20260506072030 | 20 | 273 | 6.4 | 24.1 | 0.00 | 0.00 | 0.00 | 57 | 1012.2 |
| 20260506071605 | 20 | 180 | 11.3 | 20.9 | 0.00 | 0.00 | 0.00 | 58 | 1012.0 |
| 20260506071542 | 19 | 198 | 9.7 | 22.5 | 0.00 | 0.00 | 0.00 | 57 | 1012.3 |
| 20260506071103 | 20 | 209 | 4.8 | 19.3 | 0.00 | 0.00 | 0.00 | 59 | 1012.0 |
| 20260506071029 | 19 | 207 | 6.4 | 19.3 | 0.00 | 0.00 | 0.00 | 58 | 1012.3 |
| 20260506070601 | 19 | 164 | 9.7 | 19.3 | 0.00 | 0.00 | 0.00 | 59 | 1012.0 |
| 20260506070529 | 19 | 186 | 8.0 | 19.3 | 0.00 | 0.00 | 0.00 | 59 | 1012.3 |
| 20260506062047 | 17 | 207 | 11.3 | 19.3 | 0.00 | 0.00 | 0.00 | 64 | 1012.2 |
| 20260506062029 | 17 | 197 | 9.7 | 30.6 | 0.00 | 0.00 | 0.00 | 64 | 1012.5 |
| 20260506061548 | 17 | 189 | 9.7 | 30.6 | 0.00 | 0.00 | 0.00 | 64 | 1012.5 |
| 20260506061546 | 17 | 211 | 12.9 | 24.1 | 0.00 | 0.00 | 0.00 | 64 | 1012.2 |